�N����,����,�~����,�C��,���x,�C��,����,���ϕ���,�ő�u�ԕ���,�ő厞����,���˗�,�I�_���x,�n�����x,�ő啗���N��,DTYPE
"21/04/18","00:10",0.0,11.4,98.1,1002.9,340.6,1.2,2.1,337.5,0.00,11.2,130.0,"00:05:06",1
"21/04/18","00:20",0.0,11.4,98.0,1002.9,320.3,1.3,2.4,329.0,0.00,11.1,130.0,"00:10:02",1
"21/04/18","00:30",0.0,11.5,98.0,1002.4,302.4,1.2,2.4,324.1,0.00,11.2,130.0,"00:20:08",1
"21/04/18","00:40",0.0,11.4,98.0,1002.2,283.7,1.0,2.5,318.9,0.00,11.1,130.0,"00:39:30",1
"21/04/18","00:50",0.0,11.4,98.0,1001.9,294.9,1.3,2.4,311.4,0.00,11.1,130.0,"00:48:12",1
"21/04/18","01:00",0.6,11.2,98.0,1003.1,286.8,2.6,6.4,316.2,0.00,10.9,130.0,"00:56:38",1
"21/04/18","01:10",0.4,11.0,98.1,1002.9,307.3,4.1,7.3,319.8,0.00,10.8,130.0,"01:02:12",1
"21/04/18","01:20",0.0,10.3,97.8,1003.1,314.5,4.6,6.8,329.4,0.00,10.0,130.0,"01:18:42",1
"21/04/18","01:30",0.0,10.1,98.0,1002.9,314.3,4.7,6.8,323.1,0.00,9.8,130.0,"01:21:48",1
"21/04/18","01:40",0.0,9.9,97.1,1002.9,322.6,6.0,9.8,326.8,0.00,9.5,130.0,"01:31:14",1
"21/04/18","01:50",0.0,9.5,97.2,1003.1,321.9,4.9,10.0,331.5,0.00,9.1,130.0,"01:44:28",1
"21/04/18","02:00",0.0,9.2,96.5,1002.9,323.9,4.7,8.1,338.7,0.00,8.7,130.0,"01:55:44",1
"21/04/18","02:10",0.0,9.2,95.1,1002.9,323.2,6.4,11.6,338.6,0.00,8.5,130.0,"02:08:26",1
"21/04/18","02:20",0.0,9.7,93.7,1003.6,318.1,5.2,10.2,330.5,0.00,8.8,130.0,"02:14:08",1
"21/04/18","02:30",0.0,9.6,91.1,1003.4,302.7,2.5,4.8,314.5,0.00,8.3,130.0,"02:21:36",1
"21/04/18","02:40",0.0,9.4,88.4,1003.8,291.6,2.0,3.4,304.3,0.00,7.6,130.0,"02:37:36",1
"21/04/18","02:50",0.0,9.3,85.7,1003.6,308.8,2.5,4.7,332.9,0.00,7.1,130.0,"02:41:44",1
"21/04/18","03:00",0.0,9.2,83.8,1003.6,301.7,1.8,3.1,315.7,0.00,6.6,130.0,"02:59:36",1
"21/04/18","03:10",0.0,9.0,82.9,1004.1,329.8,1.0,1.8,320.8,0.00,6.3,130.0,"03:06:48",1
"21/04/18","03:20",0.0,8.5,83.1,1003.8,325.7,1.0,2.6,310.0,0.00,5.8,130.0,"03:14:08",1
"21/04/18","03:30",0.0,8.0,84.3,1004.1,313.6,1.6,3.1,340.2,0.00,5.6,130.0,"03:26:32",1
"21/04/18","03:40",0.0,7.5,85.3,1003.8,318.4,1.5,2.1,304.5,0.00,5.2,130.0,"03:32:08",1
"21/04/18","03:50",0.0,7.1,86.5,1003.8,296.6,1.6,2.0,266.6,0.00,5.0,130.0,"03:41:04",1
"21/04/18","04:00",0.0,7.1,87.8,1003.8,330.4,1.7,2.9,340.0,0.00,5.3,130.0,"03:51:44",1
"21/04/18","04:10",0.0,6.7,88.8,1004.1,275.3,1.6,2.7,319.4,0.00,5.0,130.0,"04:02:48",1
"21/04/18","04:20",0.0,6.6,89.8,1003.8,296.6,1.0,2.0,294.4,0.00,5.1,130.0,"04:10:24",1
"21/04/18","04:30",0.0,6.5,90.5,1003.8,317.2,1.2,2.4,336.8,0.00,5.1,130.0,"04:26:56",1
"21/04/18","04:40",0.0,6.3,91.0,1004.1,323.3,1.0,1.7,350.3,0.00,5.0,130.0,"04:33:36",1
"21/04/18","04:50",0.0,6.1,91.7,1003.8,301.0,1.0,1.7,328.5,0.00,4.9,130.0,"04:41:44",1
"21/04/18","05:00",0.0,6.1,92.2,1003.8,312.4,1.5,2.0,304.7,0.00,5.0,130.0,"04:52:32",1
"21/04/18","05:10",0.0,6.0,92.5,1004.1,331.0,1.0,1.7,345.5,0.00,4.9,130.0,"05:02:00",1
"21/04/18","05:20",0.0,6.0,92.9,1004.1,333.5,1.1,2.7,334.5,0.00,5.0,130.0,"05:13:28",1
"21/04/18","05:30",0.0,5.8,93.3,1004.1,328.6,1.2,2.2,314.0,0.00,4.8,130.0,"05:28:32",1
"21/04/18","05:40",0.0,5.6,93.8,1003.8,313.7,1.5,1.9,308.0,0.00,4.7,130.0,"05:35:28",1
"21/04/18","05:50",0.0,5.7,94.0,1004.1,316.6,1.2,2.4,323.8,0.00,4.9,130.0,"05:44:00",1
"21/04/18","06:00",0.0,5.5,94.4,1004.1,308.4,2.0,3.4,324.5,0.00,4.7,130.0,"05:52:32",1
"21/04/18","06:10",0.0,5.7,94.7,1004.1,309.4,1.2,2.0,331.2,0.00,5.0,130.0,"06:09:52",1
"21/04/18","06:20",0.0,6.3,94.9,1004.3,320.3,1.5,2.6,320.4,0.00,5.6,130.0,"06:19:52",1
"21/04/18","06:30",0.0,6.7,95.0,1004.3,317.8,1.1,1.7,322.3,0.00,6.0,130.0,"06:21:04",1
"21/04/18","06:40",0.0,6.9,95.1,1004.5,282.3,1.2,3.6,318.8,0.01,6.2,130.0,"06:30:02",1
"21/04/18","06:50",0.0,7.2,95.2,1004.5,308.3,2.3,3.4,318.0,0.00,6.5,130.0,"06:41:52",1
"21/04/18","07:00",0.0,7.4,95.3,1004.8,299.5,2.3,3.3,324.8,0.01,6.7,130.0,"06:58:48",1
"21/04/18","07:10",0.0,7.5,95.3,1004.8,303.6,2.5,3.3,310.0,0.02,6.8,130.0,"07:01:28",1
"21/04/18","07:20",0.0,7.8,95.2,1004.8,309.9,2.6,3.5,323.0,0.05,7.1,130.0,"07:19:04",1
"21/04/18","07:30",0.0,8.0,94.7,1004.5,310.6,3.4,4.5,327.1,0.04,7.2,130.0,"07:23:36",1
"21/04/18","07:40",0.0,8.3,94.0,1005.0,307.7,3.5,4.7,298.4,0.05,7.4,130.0,"07:35:04",1
"21/04/18","07:50",0.0,8.5,93.0,1004.8,305.3,3.5,4.8,323.7,0.06,7.5,130.0,"07:44:56",1
"21/04/18","08:00",0.0,9.2,92.2,1005.0,313.4,3.1,4.7,336.6,0.16,8.0,130.0,"07:58:48",1
"21/04/18","08:10",0.0,9.9,89.6,1005.0,314.5,3.1,6.4,342.4,0.23,8.3,130.0,"08:09:12",1
"21/04/18","08:20",0.0,10.6,86.3,1005.0,301.1,2.7,4.3,340.2,0.25,8.4,130.0,"08:13:12",1
"21/04/18","08:30",0.0,11.1,81.9,1005.0,293.0,2.3,3.9,300.9,0.28,8.2,130.0,"08:27:12",1
"21/04/18","08:40",0.0,11.6,77.4,1005.0,288.9,2.3,4.4,350.2,0.31,7.8,130.0,"08:34:24",1
"21/04/18","08:50",0.0,11.7,73.1,1005.5,288.6,2.6,5.4,318.9,0.33,7.1,130.0,"08:47:52",1
"21/04/18","09:00",0.0,12.3,70.0,1005.7,281.9,2.2,4.2,277.0,0.35,7.0,130.0,"08:56:24",1
"21/04/18","09:10",0.0,11.5,68.4,1006.0,251.2,2.5,4.8,229.6,0.15,5.9,130.0,"09:02:08",1
"21/04/18","09:20",0.0,11.7,69.5,1006.0,271.0,2.2,4.4,285.5,0.16,6.4,130.0,"09:13:04",1
"21/04/18","09:30",0.0,11.9,69.2,1006.0,272.3,1.8,3.6,297.2,0.20,6.5,130.0,"09:24:16",1
"21/04/18","09:40",0.0,12.2,69.4,1005.2,300.4,2.1,4.7,354.1,0.30,6.8,130.0,"09:35:36",1
"21/04/18","09:50",0.0,13.1,67.4,1005.5,285.8,1.8,3.7,281.7,0.41,7.2,130.0,"09:45:04",1
"21/04/18","10:00",0.0,13.4,65.4,1005.2,261.8,2.2,4.3,236.4,0.40,7.1,130.0,"09:55:12",1
"21/04/18","10:10",0.0,13.8,61.2,1005.2,259.7,2.3,5.1,243.3,0.43,6.5,130.0,"10:09:20",1
"21/04/18","10:20",0.0,13.1,63.2,1005.2,269.1,2.7,5.1,219.5,0.25,6.3,130.0,"10:10:48",1
"21/04/18","10:30",0.0,12.7,62.9,1005.7,265.4,2.3,5.4,281.3,0.18,5.9,130.0,"10:28:24",1
"21/04/18","10:40",0.0,13.3,62.8,1005.2,275.2,2.6,5.1,319.8,0.36,6.4,130.0,"10:38:32",1
"21/04/18","10:50",0.0,13.2,60.9,1005.2,298.4,3.0,6.0,299.0,0.35,5.9,130.0,"10:47:36",1
"21/04/18","11:00",0.0,11.8,66.7,1005.5,322.9,4.1,8.1,325.1,0.17,5.9,130.0,"10:56:16",1
"21/04/18","11:10",0.2,11.0,72.5,1005.5,341.1,4.1,8.0,313.4,0.19,6.3,130.0,"11:00:30",1
"21/04/18","11:20",0.0,10.6,75.7,1005.2,340.4,3.0,5.9,342.0,0.27,6.5,130.0,"11:19:54",1
"21/04/18","11:30",0.2,11.1,77.9,1005.5,347.7,2.7,6.2,326.8,0.50,7.4,130.0,"11:27:38",1
"21/04/18","11:40",0.0,11.8,78.3,1004.8,315.5,2.6,6.7,331.0,0.51,8.2,130.0,"11:31:12",1
"21/04/18","11:50",0.0,12.7,77.4,1005.0,295.4,2.6,4.9,320.6,0.62,8.9,130.0,"11:40:08",1
"21/04/18","12:00",0.0,13.0,74.5,1005.5,314.4,2.6,5.0,336.5,0.66,8.6,130.0,"11:56:08",1
"21/04/18","12:10",0.0,13.6,72.0,1005.0,311.7,3.5,6.6,315.8,0.62,8.7,130.0,"12:02:32",1
"21/04/18","12:20",0.0,13.4,68.7,1005.0,308.3,3.9,8.3,339.9,0.62,7.8,130.0,"12:18:56",1
"21/04/18","12:30",0.0,12.8,66.6,1005.0,322.0,5.2,11.3,307.7,0.65,6.8,130.0,"12:26:16",1
"21/04/18","12:40",0.0,13.0,67.3,1004.5,327.4,5.4,11.4,320.4,0.58,7.1,130.0,"12:37:28",1
"21/04/18","12:50",0.0,13.3,65.3,1005.0,326.0,5.6,9.1,333.7,0.60,7.0,130.0,"12:48:32",1
"21/04/18","13:00",0.0,13.1,65.4,1005.0,319.7,5.4,8.9,331.5,0.58,6.8,130.0,"12:52:32",1
"21/04/18","13:10",0.0,13.7,67.1,1004.8,318.8,4.4,7.8,331.8,0.59,7.8,130.0,"13:04:40",1
"21/04/18","13:20",0.0,14.0,66.4,1004.3,323.5,4.9,12.0,335.9,0.62,7.9,130.0,"13:10:48",1
"21/04/18","13:30",0.0,14.3,64.1,1004.3,307.3,4.1,9.6,335.8,0.60,7.7,130.0,"13:22:08",1
"21/04/18","13:40",0.0,14.4,61.9,1004.8,302.2,4.2,8.0,241.2,0.59,7.2,130.0,"13:34:48",1
"21/04/18","13:50",0.0,14.6,60.0,1004.1,282.0,4.2,7.8,332.1,0.59,7.0,130.0,"13:49:44",1
"21/04/18","14:00",0.0,14.0,60.9,1004.3,304.0,4.0,9.3,320.9,0.33,6.6,130.0,"13:50:56",1
"21/04/18","14:10",0.0,13.6,61.3,1004.5,297.1,3.5,7.0,328.1,0.22,6.3,130.0,"14:05:04",1
"21/04/18","14:20",0.0,12.1,65.1,1004.5,321.5,5.2,13.3,306.8,0.14,5.8,130.0,"14:15:20",1
"21/04/18","14:30",0.0,12.9,66.2,1004.1,311.9,4.2,10.1,329.6,0.48,6.8,130.0,"14:25:24",1
"21/04/18","14:40",0.0,13.9,60.3,1004.1,302.8,5.0,11.1,320.2,0.51,6.4,130.0,"14:35:34",1
"21/04/18","14:50",0.0,14.7,58.8,1004.1,307.8,4.9,10.6,326.6,0.50,6.8,130.0,"14:43:36",1
"21/04/18","15:00",0.0,14.7,56.3,1004.5,305.1,4.0,7.2,336.9,0.39,6.1,130.0,"14:56:16",1
"21/04/18","15:10",0.2,12.4,64.7,1005.0,336.5,4.9,10.2,357.9,0.10,6.0,130.0,"15:07:30",1
"21/04/18","15:20",0.0,12.0,69.8,1004.8,331.7,5.4,9.1,320.2,0.36,6.7,130.0,"15:18:52",1
"21/04/18","15:30",0.0,12.3,67.1,1005.0,330.7,7.3,10.9,332.3,0.41,6.4,130.0,"15:29:38",1
"21/04/18","15:40",0.0,12.7,65.5,1004.8,332.6,5.6,12.4,337.9,0.33,6.4,130.0,"15:31:54",1
"21/04/18","15:50",0.0,12.4,65.2,1004.8,330.4,6.5,13.4,336.4,0.28,6.1,130.0,"15:48:20",1
"21/04/18","16:00",0.0,12.2,64.8,1005.2,328.9,7.0,11.6,310.2,0.23,5.8,130.0,"15:51:04",1
"21/04/18","16:10",0.0,12.1,65.2,1005.0,326.1,6.6,11.4,328.5,0.23,5.8,130.0,"16:03:50",1
"21/04/18","16:20",0.0,11.9,68.6,1005.0,332.1,4.2,7.5,311.9,0.15,6.4,130.0,"16:19:52",1
"21/04/18","16:30",0.0,11.6,68.7,1005.2,328.0,5.4,9.6,339.9,0.23,6.1,130.0,"16:26:58",1
"21/04/18","16:40",0.0,10.8,70.3,1005.7,334.4,5.9,10.4,337.9,0.06,5.7,130.0,"16:35:04",1
"21/04/18","16:50",0.2,9.6,74.3,1006.2,332.4,5.6,10.9,324.0,0.03,5.3,130.0,"16:40:16",1
"21/04/18","17:00",0.4,8.7,77.3,1006.2,325.8,5.5,9.5,324.4,0.04,5.0,130.0,"16:56:30",1
"21/04/18","17:10",0.2,8.5,79.7,1005.5,321.3,6.0,10.4,322.0,0.04,5.2,130.0,"17:05:04",1
"21/04/18","17:20",0.0,8.6,81.9,1005.7,295.5,3.2,5.8,339.6,0.03,5.7,130.0,"17:18:06",1
"21/04/18","17:30",0.0,9.1,83.6,1005.0,292.8,3.4,5.4,330.2,0.09,6.5,130.0,"17:26:32",1
"21/04/18","17:40",0.0,9.1,83.8,1005.5,304.6,3.9,5.7,263.8,0.04,6.5,130.0,"17:36:24",1
"21/04/18","17:50",0.0,9.0,84.0,1005.5,302.3,3.2,6.4,306.7,0.02,6.5,130.0,"17:47:10",1
"21/04/18","18:00",0.0,8.9,84.1,1005.5,314.9,2.6,4.7,322.1,0.01,6.4,130.0,"17:55:02",1
"21/04/18","18:10",0.0,8.8,84.1,1005.5,328.6,2.5,5.1,330.9,0.00,6.3,130.0,"18:02:44",1
"21/04/18","18:20",0.0,8.8,83.9,1005.5,310.1,2.1,5.2,310.3,0.00,6.3,130.0,"18:14:26",1
"21/04/18","18:30",0.0,8.7,83.8,1006.0,297.7,1.7,3.4,312.3,0.00,6.2,130.0,"18:26:56",1
"21/04/18","18:40",0.0,8.5,83.8,1005.7,293.2,1.3,3.2,334.2,0.00,6.0,130.0,"18:39:12",1
"21/04/18","18:50",0.0,8.4,84.0,1006.0,316.4,2.5,4.9,315.6,0.00,5.9,130.0,"18:43:12",1
"21/04/18","19:00",0.0,8.3,84.3,1006.4,304.9,2.5,5.2,329.0,0.00,5.9,130.0,"18:56:24",1
"21/04/18","19:10",0.0,8.2,84.5,1006.0,306.5,2.2,4.1,329.0,0.00,5.8,130.0,"19:04:00",1
"21/04/18","19:20",0.0,8.3,84.6,1006.2,302.2,3.2,7.8,323.1,0.00,5.9,130.0,"19:17:12",1
"21/04/18","19:30",0.0,8.5,84.4,1006.2,306.8,4.5,6.8,310.2,0.00,6.1,130.0,"19:28:08",1
"21/04/18","19:40",0.0,8.5,84.1,1006.9,306.6,4.2,6.0,277.8,0.00,6.0,130.0,"19:36:48",1
"21/04/18","19:50",0.0,8.5,84.0,1006.9,307.7,3.9,5.7,308.4,0.00,6.0,130.0,"19:47:20",1
"21/04/18","20:00",0.0,8.3,84.2,1006.7,318.8,3.9,6.0,320.3,0.00,5.8,130.0,"19:58:32",1
"21/04/18","20:10",0.0,8.3,84.5,1007.4,310.9,3.6,6.6,319.6,0.00,5.9,130.0,"20:05:12",1
"21/04/18","20:20",0.0,8.2,84.7,1007.4,300.8,3.0,5.5,317.5,0.00,5.8,130.0,"20:13:12",1
"21/04/18","20:30",0.0,8.2,84.8,1007.4,292.2,2.5,5.2,322.6,0.00,5.8,130.0,"20:21:20",1
"21/04/18","20:40",0.0,8.1,84.9,1008.1,310.0,2.6,4.0,313.2,0.00,5.8,130.0,"20:39:44",1
"21/04/18","20:50",0.0,8.2,84.7,1008.1,310.9,3.4,6.7,337.6,0.00,5.8,130.0,"20:40:08",1
"21/04/18","21:00",0.0,8.2,84.5,1008.3,300.8,2.8,6.7,309.1,0.00,5.8,130.0,"20:50:02",1
"21/04/18","21:10",0.0,8.3,84.0,1008.6,292.6,2.7,5.0,299.4,0.00,5.8,130.0,"21:06:24",1
"21/04/18","21:20",0.0,8.3,83.6,1008.6,302.4,2.7,4.4,319.5,0.00,5.7,130.0,"21:16:16",1
"21/04/18","21:30",0.0,8.2,83.4,1008.8,291.4,2.3,4.1,320.1,0.00,5.6,130.0,"21:21:52",1
"21/04/18","21:40",0.0,8.2,83.4,1009.0,282.6,2.5,3.7,289.4,0.00,5.6,130.0,"21:34:32",1
"21/04/18","21:50",0.0,8.2,83.4,1008.8,283.3,2.5,3.6,265.0,0.00,5.6,130.0,"21:45:12",1
"21/04/18","22:00",0.0,8.1,83.3,1008.8,314.6,2.5,4.4,326.5,0.00,5.5,130.0,"21:53:36",1
"21/04/18","22:10",0.0,7.8,83.6,1008.6,307.4,2.1,2.9,322.7,0.00,5.2,130.0,"22:06:08",1
"21/04/18","22:20",0.0,7.8,83.9,1009.0,290.4,2.1,4.2,297.5,0.00,5.3,130.0,"22:18:24",1
"21/04/18","22:30",0.0,7.9,84.0,1008.8,311.8,2.7,3.7,320.3,0.00,5.4,130.0,"22:26:48",1
"21/04/18","22:40",0.0,7.8,84.2,1008.8,312.7,2.6,3.9,333.5,0.00,5.3,130.0,"22:34:32",1
"21/04/18","22:50",0.0,7.6,84.4,1009.0,304.1,2.0,3.5,327.8,0.00,5.2,130.0,"22:44:40",1
"21/04/18","23:00",0.0,7.4,84.7,1009.3,322.1,2.1,3.2,334.5,0.00,5.0,130.0,"22:54:24",1
"21/04/18","23:10",0.0,7.1,85.1,1009.3,324.0,2.0,2.7,319.6,0.00,4.8,130.0,"23:08:40",1
"21/04/18","23:20",0.0,6.5,85.8,1009.3,308.5,1.7,3.2,325.9,0.00,4.3,130.0,"23:19:20",1
"21/04/18","23:30",0.0,6.1,86.6,1009.3,327.3,2.0,3.1,324.7,0.00,4.1,130.0,"23:24:08",1
"21/04/18","23:40",0.0,5.8,87.4,1009.5,320.6,1.7,2.5,318.4,0.00,3.9,130.0,"23:31:20",1
"21/04/18","23:50",0.0,5.5,87.9,1009.5,302.2,1.2,1.9,320.5,0.00,3.7,130.0,"23:49:04",1
"21/04/18","24:00",0.0,5.4,88.4,1009.7,302.4,1.1,1.7,316.5,0.00,3.7,130.0,"23:50:24",1
